Погода в Беле под Бездезем

Чехия     50°30′14″N   14°48′01″E
темп.,
°C
ветер,
м/с
пор.,
м/с
влажн.,
%
обл.,
%
осадки,
мм/ч
давл.,
гПа
погр.,
м
7 марта, вс
вс701:00−1з11690 0.0 102921
04:00−1з22700 0.0 102837
07:00−1юз11720 0.0 102626
10:00+3зюз34550 0.0 1025663
13:00+6з35509 0.0 10231234
16:00+5сз465891 0.0 10211207
19:000с238261 0.0 102169
22:00−1ссз378737 0.0 1021255
8 марта, пн
пн801:00−1зсз368930 0.0 1021206
04:00−1зсз268882 0.0 1020319
07:00−1з268888 0.0 1021310
10:00+2ссз347285 0.1 1022743
13:00+4ссз335889 0.1 10221110
16:00+3с344975 0.0 10211240
19:00−1ссв346937 0.0 102298
22:00−2ссв127612 0.0 102324
9 марта, вт
вт901:00−2ссв007248 0.0 102321
04:00−2ссв116899 0.0 102224
07:00−1всв116399 0.0 102239
10:00+2ююв1247100 0.0 1022601
13:00+4ююз2140100 0.0 10221143
16:00+3зюз124394 0.0 10211272
19:00−1юз115957 0.0 102221
22:00−1ю11600 0.0 102321
10 марта, ср
ср1001:00−1юв116415 0.0 102321
04:00−1юв226987 0.0 102335
07:00−1в127583 0.0 102383
10:00+3ююв237197 0.0 1023426
13:00+6ю456198 0.0 1021974
16:00+7ююз3664100 0.0 10181216
19:00+3ю377899 0.0 1017137
22:00+3ююв3878100 0.0 1016195
11 марта, чт
чт1101:00+4ююз41275100 0.3 1013886
04:00+4юз61586100 0.8 1010757
07:00+6юз71685100 2.8 1008904
10:00+9зюз91867100 0.2 10071241
13:00+11зюз81862100 0.2 10051645
16:00+11юз61768100 0.0 10031531
19:00+10зюз71974100 0.0 10031641
22:00+7зюз6176897 0.2 10041336